SWA888 MWCR-MDPC

Flight info

Callsign SWA888
Flight time N/A
Altitude 37000
Route NALRO2 NALRO UG633 SIA UT6 KEBET UL577 PAP UA890 ETBOD UL577 ANTEX ANTEX2B
Aircraft B737/M-SDE2E3FGHIRWXY/LB1

Departure

Time N/A
Airport Owen Roberts International Airport (MWCR)

Arrival

Time 2026-05-07 16:54
Airport Punta Cana International Airport (MDPC)
Time Latitude Longitude Altitude Speed Heading
2026-05-07 15:43 18.28087 -75.02748 37076 ft 468 kts 92°
2026-05-07 15:43 18.27802 -74.99333 37073 ft 468 kts 92°
2026-05-07 15:43 18.27228 -74.92494 37074 ft 468 kts 92°
2026-05-07 15:44 18.26653 -74.85667 37074 ft 468 kts 92°
2026-05-07 15:44 18.26075 -74.78837 37073 ft 468 kts 92°
2026-05-07 15:45 18.25499 -74.72053 37071 ft 468 kts 92°
2026-05-07 15:45 18.25111 -74.65221 37065 ft 465 kts 83°
2026-05-07 15:46 18.26487 -74.55181 37071 ft 462 kts 78°
2026-05-07 15:47 18.27504 -74.48546 37073 ft 462 kts 78°
2026-05-07 15:47 18.28484 -74.41859 37074 ft 462 kts 78°
2026-05-07 15:48 18.29440 -74.35155 37082 ft 462 kts 78°
2026-05-07 15:48 18.30387 -74.28461 37077 ft 462 kts 78°
2026-05-07 15:49 18.31173 -74.22890 37072 ft 462 kts 78°
2026-05-07 15:49 18.32272 -74.15102 37094 ft 462 kts 78°
2026-05-07 15:50 18.33057 -74.09530 37082 ft 462 kts 78°
2026-05-07 15:50 18.33998 -74.02827 37086 ft 462 kts 78°
2026-05-07 15:51 18.34935 -73.96128 37062 ft 461 kts 78°
2026-05-07 15:51 18.35843 -73.89516 37096 ft 459 kts 78°
2026-05-07 15:52 18.36781 -73.82851 37086 ft 460 kts 78°
2026-05-07 15:52 18.37714 -73.76188 37078 ft 460 kts 78°
2026-05-07 15:53 18.38639 -73.69523 37080 ft 460 kts 78°
2026-05-07 15:53 18.39559 -73.62862 37077 ft 459 kts 78°
2026-05-07 15:54 18.40476 -73.56212 37084 ft 459 kts 78°
2026-05-07 15:54 18.41391 -73.49563 37077 ft 459 kts 78°
2026-05-07 15:55 18.42299 -73.42948 37081 ft 459 kts 78°
2026-05-07 15:55 18.43208 -73.36295 37077 ft 459 kts 78°
2026-05-07 15:56 18.44116 -73.29641 37084 ft 459 kts 77°
2026-05-07 15:56 18.45020 -73.22979 37091 ft 458 kts 77°
2026-05-07 15:57 18.45925 -73.16320 37078 ft 459 kts 77°
2026-05-07 15:57 18.46821 -73.09713 37072 ft 459 kts 77°
2026-05-07 15:58 18.47718 -73.03064 37078 ft 458 kts 77°
2026-05-07 15:58 18.48616 -72.96399 37078 ft 458 kts 77°
2026-05-07 15:59 18.49508 -72.89769 37075 ft 457 kts 77°
2026-05-07 15:59 18.50048 -72.85868 37067 ft 457 kts 77°
2026-05-07 16:00 18.50975 -72.79243 37069 ft 457 kts 77°
2026-05-07 16:00 18.51900 -72.72607 37073 ft 456 kts 77°
2026-05-07 16:01 18.52817 -72.65988 37069 ft 456 kts 77°
2026-05-07 16:01 18.53730 -72.59370 37080 ft 456 kts 77°
2026-05-07 16:02 18.54636 -72.52789 37061 ft 456 kts 77°
2026-05-07 16:02 18.55546 -72.46161 37048 ft 456 kts 77°
2026-05-07 16:03 18.56452 -72.39545 37048 ft 456 kts 77°
2026-05-07 16:03 18.57352 -72.32930 37047 ft 456 kts 78°
2026-05-07 16:04 18.57241 -72.26185 37056 ft 466 kts 93°
2026-05-07 16:04 18.56220 -72.19418 37050 ft 468 kts 94°
2026-05-07 16:05 18.55188 -72.12650 37065 ft 468 kts 93°
2026-05-07 16:05 18.54209 -72.05873 37071 ft 468 kts 93°
2026-05-07 16:06 18.53245 -71.99091 37072 ft 468 kts 93°
2026-05-07 16:06 18.52281 -71.92349 37075 ft 468 kts 93°
2026-05-07 16:07 18.51480 -71.85573 37081 ft 463 kts 87°
2026-05-07 16:07 18.51249 -71.78794 37078 ft 462 kts 85°
2026-05-07 16:08 18.51101 -71.72014 37081 ft 462 kts 85°
2026-05-07 16:08 18.50909 -71.65285 37076 ft 462 kts 86°
2026-05-07 16:09 18.50681 -71.58515 37079 ft 462 kts 86°
2026-05-07 16:09 18.50439 -71.51744 37077 ft 462 kts 86°
2026-05-07 16:10 18.50195 -71.44960 37074 ft 463 kts 86°
2026-05-07 16:10 18.49950 -71.38185 37078 ft 462 kts 86°
2026-05-07 16:11 18.49704 -71.31413 37071 ft 463 kts 86°
2026-05-07 16:11 18.49457 -71.24681 37069 ft 463 kts 86°
2026-05-07 16:12 18.49205 -71.17901 37075 ft 462 kts 86°
2026-05-07 16:12 18.48951 -71.11121 37065 ft 463 kts 86°
2026-05-07 16:13 18.48695 -71.04353 37072 ft 462 kts 86°
2026-05-07 16:13 18.48437 -70.97581 37068 ft 462 kts 86°
2026-05-07 16:14 18.48176 -70.90806 37073 ft 462 kts 86°
2026-05-07 16:14 18.47914 -70.84078 37083 ft 462 kts 86°
2026-05-07 16:15 18.47649 -70.77311 37078 ft 462 kts 86°
2026-05-07 16:15 18.47381 -70.70537 37082 ft 462 kts 86°
2026-05-07 16:16 18.47112 -70.63818 37081 ft 461 kts 86°
2026-05-07 16:16 18.46840 -70.57069 37097 ft 461 kts 86°
2026-05-07 16:17 18.46565 -70.50295 37099 ft 462 kts 86°
2026-05-07 16:17 18.46287 -70.43530 37095 ft 462 kts 86°
2026-05-07 16:18 18.46007 -70.36760 37106 ft 461 kts 86°
2026-05-07 16:18 18.45721 -70.29995 37107 ft 463 kts 87°
2026-05-07 16:19 18.45422 -70.23262 37091 ft 463 kts 86°
2026-05-07 16:19 18.45158 -70.16494 37098 ft 462 kts 86°
2026-05-07 16:20 18.44707 -70.09730 37105 ft 463 kts 89°
2026-05-07 16:20 18.44067 -70.02967 37094 ft 463 kts 89°
2026-05-07 16:21 18.43537 -69.96269 37097 ft 459 kts 86°
2026-05-07 16:21 18.43468 -69.89571 37100 ft 456 kts 83°
2026-05-07 16:22 18.43496 -69.82884 37108 ft 456 kts 84°
2026-05-07 16:22 18.43471 -69.76189 37108 ft 457 kts 84°
2026-05-07 16:23 18.43421 -69.69496 37102 ft 457 kts 84°
2026-05-07 16:23 18.43439 -69.62805 37103 ft 455 kts 82°
2026-05-07 16:24 18.43664 -69.56177 37100 ft 455 kts 81°
2026-05-07 16:24 18.43912 -69.49509 37103 ft 455 kts 82°
2026-05-07 16:25 18.44134 -69.42836 37087 ft 456 kts 82°
2026-05-07 16:25 18.44337 -69.36153 37086 ft 456 kts 82°
2026-05-07 16:26 18.44532 -69.29513 37073 ft 456 kts 82°
2026-05-07 16:26 18.44726 -69.22827 37081 ft 456 kts 82°
2026-05-07 16:27 18.44923 -69.16091 36397 ft 463 kts 82°
2026-05-07 16:27 18.45019 -69.12749 35740 ft 461 kts 82°
2026-05-07 16:27 18.45114 -69.09370 34988 ft 461 kts 83°
2026-05-07 16:27 18.45210 -69.05979 34173 ft 463 kts 83°
2026-05-07 16:28 18.45305 -69.02577 33247 ft 465 kts 83°
2026-05-07 16:28 18.45401 -68.99172 32361 ft 466 kts 83°
2026-05-07 16:28 18.45496 -68.95749 31454 ft 468 kts 84°
2026-05-07 16:28 18.45591 -68.92306 30486 ft 472 kts 84°
2026-05-07 16:29 18.45687 -68.88838 29362 ft 476 kts 84°
2026-05-07 16:29 18.45782 -68.85352 28474 ft 474 kts 84°
2026-05-07 16:29 18.45872 -68.81901 27711 ft 468 kts 84°
2026-05-07 16:29 18.45960 -68.78490 26977 ft 462 kts 84°
2026-05-07 16:30 18.46048 -68.75136 26254 ft 456 kts 84°
2026-05-07 16:30 18.46133 -68.71861 25544 ft 451 kts 84°
2026-05-07 16:30 18.46220 -68.68567 24806 ft 447 kts 84°
2026-05-07 16:30 18.46306 -68.65307 24078 ft 443 kts 84°
2026-05-07 16:31 18.46390 -68.62073 23284 ft 439 kts 85°
2026-05-07 16:31 18.46474 -68.58875 22492 ft 434 kts 85°
2026-05-07 16:31 18.46555 -68.55701 21746 ft 429 kts 85°
2026-05-07 16:31 18.46635 -68.52583 21040 ft 424 kts 86°
2026-05-07 16:32 18.46713 -68.49497 20338 ft 419 kts 86°
2026-05-07 16:32 18.46791 -68.46433 19621 ft 416 kts 86°
2026-05-07 16:32 18.46867 -68.43434 18969 ft 413 kts 86°
2026-05-07 16:32 18.46942 -68.40426 18341 ft 408 kts 87°
2026-05-07 16:33 18.47015 -68.37446 17622 ft 404 kts 87°
2026-05-07 16:33 18.47088 -68.34494 16905 ft 401 kts 87°
2026-05-07 16:33 18.47160 -68.31569 16193 ft 398 kts 87°
2026-05-07 16:33 18.47230 -68.28665 15554 ft 395 kts 88°
2026-05-07 16:34 18.47298 -68.25828 15347 ft 379 kts 88°
2026-05-07 16:34 18.47362 -68.23105 15231 ft 363 kts 88°
2026-05-07 16:34 18.47424 -68.20489 14946 ft 353 kts 88°
2026-05-07 16:34 18.47685 -68.17978 14665 ft 343 kts 71°
2026-05-07 16:35 18.48734 -68.15811 14596 ft 325 kts 50°
2026-05-07 16:35 18.50358 -68.14247 14508 ft 310 kts 30°
2026-05-07 16:35 18.52282 -68.13384 14425 ft 295 kts 11°
2026-05-07 16:35 18.54285 -68.13206 14235 ft 285 kts 354°
2026-05-07 16:36 18.56206 -68.13658 13899 ft 283 kts 338°
2026-05-07 16:36 18.57397 -68.14225 13630 ft 283 kts 330°
2026-05-07 16:36 18.58949 -68.15476 13235 ft 282 kts 311°
2026-05-07 16:36 18.60170 -68.17086 12891 ft 280 kts 307°
2026-05-07 16:37 18.61337 -68.18725 12540 ft 279 kts 307°
2026-05-07 16:37 18.62498 -68.20362 12170 ft 278 kts 307°
2026-05-07 16:37 18.63660 -68.21997 11827 ft 277 kts 307°
2026-05-07 16:37 18.64815 -68.23620 11474 ft 277 kts 307°
2026-05-07 16:38 18.65960 -68.25260 11102 ft 278 kts 307°
2026-05-07 16:38 18.67100 -68.26904 10755 ft 278 kts 307°
2026-05-07 16:38 18.68225 -68.28526 10430 ft 277 kts 307°
2026-05-07 16:38 18.69346 -68.30144 10290 ft 268 kts 305°
2026-05-07 16:39 18.70063 -68.31900 10162 ft 259 kts 276°
2026-05-07 16:39 18.69954 -68.33757 9957 ft 253 kts 254°
2026-05-07 16:39 18.69349 -68.35499 9653 ft 252 kts 246°
2026-05-07 16:39 18.68652 -68.37192 9339 ft 251 kts 245°
2026-05-07 16:40 18.67956 -68.38882 9066 ft 249 kts 246°
2026-05-07 16:40 18.67293 -68.40561 8780 ft 248 kts 251°
2026-05-07 16:40 18.66816 -68.42309 8514 ft 246 kts 255°
2026-05-07 16:40 18.66398 -68.44059 8209 ft 246 kts 255°
2026-05-07 16:41 18.65980 -68.45803 7935 ft 244 kts 255°
2026-05-07 16:41 18.65556 -68.47534 7667 ft 243 kts 254°
2026-05-07 16:41 18.65135 -68.49227 7366 ft 240 kts 254°
2026-05-07 16:41 18.64708 -68.50932 6977 ft 239 kts 254°
2026-05-07 16:42 18.64282 -68.52628 6595 ft 238 kts 254°
2026-05-07 16:42 18.63780 -68.54274 6202 ft 234 kts 238°
2026-05-07 16:42 18.62640 -68.55442 5790 ft 228 kts 202°
2026-05-07 16:42 18.61125 -68.55831 5382 ft 225 kts 179°
2026-05-07 16:43 18.59575 -68.55726 5066 ft 222 kts 174°
2026-05-07 16:43 18.58036 -68.55569 4635 ft 223 kts 173°
2026-05-07 16:43 18.56587 -68.55083 4200 ft 221 kts 144°
2026-05-07 16:43 18.55656 -68.53858 3607 ft 223 kts 109°
2026-05-07 16:44 18.55441 -68.52218 2919 ft 229 kts 93°
2026-05-07 16:44 18.55501 -68.50552 2426 ft 222 kts 86°
2026-05-07 16:44 18.55627 -68.48995 2243 ft 201 kts 92°
2026-05-07 16:44 18.55246 -68.47692 2173 ft 177 kts 128°
2026-05-07 16:45 18.54780 -68.46602 1819 ft 165 kts 91°
2026-05-07 16:45 18.55195 -68.45529 1658 ft 153 kts 44°
2026-05-07 16:45 18.56100 -68.45024 1606 ft 142 kts 35°
2026-05-07 16:45 18.56571 -68.44189 1187 ft 141 kts 93°
2026-05-07 16:46 18.56339 -68.43185 995 ft 141 kts 97°
2026-05-07 16:46 18.56296 -68.42167 905 ft 138 kts 91°
2026-05-07 16:46 18.56340 -68.41153 747 ft 138 kts 85°
2026-05-07 16:46 18.56417 -68.40140 543 ft 139 kts 86°
2026-05-07 16:47 18.56500 -68.39100 406 ft 146 kts 85°
2026-05-07 16:47 18.56594 -68.38043 176 ft 142 kts 86°
2026-05-07 16:47 18.56681 -68.37012 352 ft 146 kts 88°
2026-05-07 16:47 18.56748 -68.35911 1284 ft 165 kts 86°
2026-05-07 16:48 18.56830 -68.34558 1654 ft 195 kts 86°
2026-05-07 16:48 18.56740 -68.33135 1867 ft 199 kts 107°
2026-05-07 16:48 18.55918 -68.31887 1880 ft 222 kts 144°
2026-05-07 16:48 18.54427 -68.31412 1905 ft 230 kts 183°
2026-05-07 16:49 18.52940 -68.31991 1961 ft 235 kts 216°
2026-05-07 16:49 18.51865 -68.33331 1845 ft 243 kts 243°
2026-05-07 16:49 18.51417 -68.34991 1752 ft 234 kts 258°
2026-05-07 16:49 18.51100 -68.36647 1534 ft 225 kts 258°
2026-05-07 16:50 18.50853 -68.38250 1452 ft 220 kts 261°
2026-05-07 16:50 18.50594 -68.39849 1296 ft 220 kts 257°
2026-05-07 16:50 18.50253 -68.41381 1425 ft 212 kts 256°
2026-05-07 16:50 18.49905 -68.42960 1399 ft 228 kts 257°
2026-05-07 16:51 18.50001 -68.44605 1265 ft 227 kts 292°
2026-05-07 16:51 18.50849 -68.45846 1441 ft 195 kts 326°
2026-05-07 16:51 18.52089 -68.46295 1535 ft 193 kts
2026-05-07 16:51 18.53370 -68.46047 1632 ft 178 kts 16°
2026-05-07 16:52 18.54557 -68.45722 1439 ft 175 kts 22°
2026-05-07 16:52 18.55493 -68.45046 1225 ft 155 kts 52°
2026-05-07 16:52 18.55906 -68.44062 1002 ft 150 kts 82°
2026-05-07 16:52 18.56087 -68.42967 924 ft 151 kts 82°
2026-05-07 16:53 18.56256 -68.41876 798 ft 151 kts 79°
2026-05-07 16:53 18.56365 -68.40771 627 ft 151 kts 88°
2026-05-07 16:53 18.56441 -68.39669 504 ft 152 kts 86°
2026-05-07 16:53 18.56545 -68.38571 251 ft 145 kts 85°
2026-05-07 16:54 18.56636 -68.37561 51 ft 129 kts 86°
2026-05-07 16:54 18.56705 -68.36742 52 ft 78 kts 85°
2026-05-07 16:54 18.56725 -68.36470 52 ft 21 kts 95°
2026-05-07 16:54 18.56639 -68.36423 51 ft 17 kts 173°
2026-05-07 16:55 18.56553 -68.36458 50 ft 13 kts 264°
2026-05-07 16:55 18.56545 -68.36556 50 ft 14 kts 265°
2026-05-07 16:55 18.56535 -68.36660 50 ft 14 kts 264°
2026-05-07 16:55 18.56554 -68.36739 50 ft 4 kts 282°
2026-05-07 16:56 18.56536 -68.36735 48 ft 5 kts 108°
2026-05-07 16:56 18.56516 -68.36668 50 ft 15 kts 116°
2026-05-07 16:56 18.56463 -68.36463 50 ft 15 kts 84°
2026-05-07 16:57 18.56467 -68.36369 50 ft 2 kts 89°
2026-05-07 16:57 18.56458 -68.36346 48 ft 5 kts 139°
2026-05-07 16:57 18.56424 -68.36340 50 ft 6 kts 175°
2026-05-07 16:57 18.56392 -68.36338 50 ft 0 kts 176°